Total_Precipitation_Accumulation
0.03 0.07 0.12 0.15 0.15 0.12 0.09 0.06 0.09 0.12 0.22 0.26 0.35 0.42 0.48 0.47 0.46 0.43 0.45 0.42 0.39 0.47 0.64 0.73 0.86 0.87 0.80 0.78 0.88 1.02 1.13 1.23 1.40 1.54 1.55 1.45 1.45 1.57 1.67 1.71 1.67 1.78 1.75 1.72
0.03 0.06 0.10 0.12 0.14 0.10 0.07 0.06 0.07 0.09 0.15 0.21 0.35 0.37 0.43 0.41 0.38 0.43 0.46 0.44 0.41 0.51 0.66 0.69 0.71 0.77 0.77 0.78 0.82 0.87 0.98 1.11 1.32 1.49 1.55 1.55 1.61 1.74 1.78 1.77 1.87 1.92 1.86 1.85
0.04 0.07 0.09 0.17 0.13 0.09 0.09 0.08 0.08 0.11 0.16 0.20 0.31 0.42 0.51 0.54 0.57 0.56 0.45 0.41 0.44 0.50 0.58 0.67 0.64 0.66 0.77 0.82 0.90 0.99 1.13 1.28 1.39 1.49 1.58 1.62 1.62 1.71 1.78 1.79 1.78 1.84 1.86 1.87
0.10 0.11 0.16 0.17 0.13 0.12 0.12 0.13 0.16 0.20 0.23 0.28 0.31 0.41 0.51 0.55 0.54 0.54 0.55 0.62 0.67 0.73 0.75 0.76 0.71 0.72 0.82 0.88 0.94 1.01 1.10 1.21 1.30 1.46 1.58 1.68 1.82 1.91 1.98 2.04 2.06 2.06 1.97 1.92
0.17 0.15 0.18 0.21 0.20 0.21 0.23 0.28 0.29 0.36 0.41 0.41 0.40 0.42 0.54 0.61 0.60 0.66 0.66 0.69 0.78 0.84 0.88 0.82 0.86 0.93 1.00 1.01 1.08 1.14 1.20 1.37 1.51 1.60 1.73 1.82 1.89 2.03 2.14 2.21 2.18 2.15 2.12 2.15
0.26 0.27 0.29 0.30 0.32 0.28 0.32 0.57 0.52 0.53 0.58 0.57 0.61 0.77 0.87 0.88 0.80 0.77 0.78 0.79 0.87 0.86 0.86 0.93 0.96 1.03 1.11 1.18 1.31 1.40 1.43 1.52 1.63 1.77 1.84 1.86 1.89 1.97 2.01 2.05 2.07 2.07 2.02 2.09
0.37 0.37 0.36 0.35 0.37 0.38 0.66 0.93 0.91 0.89 0.87 0.78 0.87 0.94 0.87 0.80 0.88 0.85 0.89 0.97 0.93 0.92 0.97 0.98 0.97 1.02 1.14 1.28 1.40 1.47 1.50 1.54 1.64 1.74 1.90 1.97 2.00 1.93 1.83 1.84 1.89 1.95 1.99 2.06
0.59 0.69 0.71 0.49 0.53 0.74 0.94 0.92 1.10 1.04 0.94 0.93 0.92 0.86 0.77 0.78 0.90 1.00 1.04 1.11 1.09 1.06 1.02 1.03 1.08 1.14 1.24 1.37 1.44 1.50 1.51 1.58 1.66 1.69 1.70 1.74 1.90 1.94 1.89 1.86 1.86 1.89 1.98 1.97
0.82 0.91 0.82 0.69 0.71 0.80 0.76 0.79 0.94 0.96 0.87 0.86 0.83 0.80 0.75 0.79 0.85 0.88 0.95 1.04 1.07 1.09 1.10 1.14 1.20 1.27 1.40 1.45 1.51 1.52 1.59 1.72 1.81 1.78 1.77 1.76 1.79 1.85 1.83 1.75 1.64 1.59 1.68 1.75
1.10 1.12 0.98 0.84 0.72 0.72 0.73 0.75 0.79 0.87 0.92 0.90 0.87 0.84 0.84 0.84 0.86 0.94 1.00 1.05 1.11 1.10 1.13 1.24 1.35 1.47 1.50 1.46 1.54 1.70 1.75 1.75 1.76 1.77 1.72 1.74 1.85 1.79 1.75 1.73 1.63 1.50 1.57 1.69
1.54 1.61 1.41 1.22 1.04 0.94 0.89 0.86 0.91 1.00 1.04 1.09 1.08 1.05 1.01 0.95 0.91 0.92 0.98 0.99 1.05 1.13 1.17 1.26 1.33 1.44 1.54 1.56 1.61 1.70 1.65 1.55 1.56 1.59 1.56 1.54 1.65 1.71 1.60 1.56 1.59 1.53 1.64 1.84
1.86 1.73 1.69 1.56 1.29 1.13 1.11 1.14 1.08 1.11 1.13 1.12 1.08 1.07 1.05 1.04 0.93 0.86 0.87 0.95 1.01 1.07 1.15 1.23 1.30 1.36 1.39 1.45 1.55 1.65 1.68 1.61 1.55 1.51 1.52 1.55 1.55 1.55 1.53 1.37 1.37 1.33 1.38 1.48
1.57 1.53 1.55 1.50 1.34 1.19 1.21 1.20 1.23 1.25 1.18 1.12 1.08 1.00 0.93 0.98 0.99 0.93 0.93 0.94 1.01 1.09 1.14 1.18 1.21 1.26 1.27 1.34 1.50 1.64 1.71 1.73 1.65 1.47 1.38 1.35 1.36 1.38 1.39 1.31 1.10 1.04 1.06 1.04
1.57 1.51 1.53 1.47 1.45 1.31 1.30 1.23 1.22 1.21 1.12 1.07 1.12 1.07 0.96 0.93 1.02 1.08 1.09 1.09 1.16 1.21 1.16 1.10 1.10 1.13 1.18 1.22 1.30 1.38 1.43 1.50 1.45 1.36 1.31 1.23 1.17 1.13 1.12 1.21 1.20 1.07 0.99 0.92
1.31 1.32 1.43 1.39 1.35 1.35 1.36 1.31 1.25 1.17 1.05 1.09 1.16 1.15 1.11 1.09 1.15 1.28 1.31 1.34 1.34 1.30 1.20 1.10 1.09 1.11 1.13 1.20 1.24 1.23 1.30 1.32 1.28 1.30 1.35 1.33 1.31 1.25 1.16 1.17 1.27 1.29 1.18 0.96
1.20 1.27 1.28 1.35 1.47 1.38 1.29 1.25 1.24 1.20 1.09 1.08 1.12 1.12 1.07 1.06 1.13 1.23 1.30 1.40 1.50 1.50 1.37 1.27 1.17 1.09 1.08 1.20 1.28 1.26 1.28 1.37 1.31 1.22 1.24 1.33 1.35 1.29 1.29 1.38 1.38 1.47 1.46 1.17
1.26 1.31 1.26 1.29 1.39 1.40 1.31 1.22 1.25 1.21 1.15 1.18 1.18 1.09 1.06 1.07 1.15 1.24 1.24 1.24 1.27 1.28 1.23 1.21 1.13 1.03 1.03 1.12 1.18 1.21 1.23 1.28 1.32 1.25 1.23 1.24 1.24 1.24 1.24 1.32 1.43 1.49 1.46 1.26
1.19 1.12 1.10 1.12 1.16 1.21 1.23 1.24 1.25 1.16 1.11 1.14 1.17 1.12 1.07 1.08 1.19 1.32 1.32 1.26 1.15 1.07 1.07 1.04 0.97 0.93 0.95 0.99 1.04 1.13 1.17 1.21 1.22 1.22 1.23 1.20 1.18 1.24 1.28 1.39 1.50 1.56 1.46 1.32
1.21 1.10 1.02 0.99 0.94 0.96 1.06 1.12 1.13 1.11 1.05 1.04 1.08 1.08 1.05 1.02 1.10 1.22 1.24 1.32 1.33 1.25 1.13 1.01 0.93 0.84 0.86 0.89 0.91 0.97 1.01 1.06 1.10 1.13 1.13 1.09 1.09 1.13 1.16 1.24 1.37 1.45 1.39 1.34
1.28 1.21 1.07 0.98 0.94 0.87 0.90 0.91 1.00 1.07 1.01 0.94 0.94 0.95 0.95 0.97 1.08 1.25 1.31 1.39 1.49 1.41 1.25 1.11 0.86 0.75 0.72 0.72 0.75 0.72 0.74 0.75 0.76 0.80 0.82 0.86 0.90 0.93 0.94 0.99 1.12 1.19 1.14 1.19
1.32 1.25 1.13 1.01 1.02 0.96 0.90 0.83 0.86 0.95 0.94 0.98 1.02 1.01 0.98 0.96 1.02 1.22 1.50 1.64 1.50 1.31 1.20 1.17 0.89 0.69 0.60 0.63 0.71 0.69 0.70 0.69 0.68 0.71 0.71 0.74 0.78 0.82 0.90 0.97 1.01 1.04 1.07 1.09
1.26 1.20 1.11 1.03 0.98 0.99 0.96 0.86 0.82 0.88 0.91 0.96 0.92 0.90 0.95 0.95 0.96 1.09 1.27 1.49 1.40 1.27 1.05 0.98 0.85 0.63 0.55 0.51 0.51 0.59 0.66 0.71 0.72 0.75 0.77 0.77 0.79 0.83 0.88 0.87 0.87 0.89 0.93 1.00
1.24 1.16 1.07 0.97 0.90 0.90 0.89 0.88 0.84 0.83 0.83 0.86 0.85 0.88 0.95 0.96 0.94 1.09 1.20 1.08 1.01 1.01 0.87 0.84 0.79 0.66 0.55 0.49 0.49 0.52 0.58 0.64 0.67 0.68 0.67 0.68 0.73 0.76 0.79 0.81 0.81 0.80 0.87 0.92
1.17 1.20 1.14 1.05 0.92 0.85 0.88 0.88 0.83 0.81 0.80 0.81 0.82 0.86 0.91 0.91 0.87 0.85 0.89 0.89 0.88 0.85 0.75 0.78 0.72 0.60 0.52 0.49 0.53 0.56 0.57 0.60 0.62 0.62 0.61 0.64 0.70 0.76 0.82 0.87 0.89 0.87 0.87 0.85
1.11 1.09 1.08 1.06 0.98 0.90 0.87 0.84 0.86 0.90 0.86 0.83 0.81 0.81 0.82 0.82 0.81 0.78 0.74 0.74 0.77 0.71 0.67 0.71 0.66 0.63 0.56 0.57 0.62 0.63 0.61 0.62 0.64 0.63 0.65 0.69 0.76 0.83 0.86 0.88 0.87 0.83 0.81 0.79
1.01 0.99 1.00 0.97 0.91 0.93 0.93 0.90 0.93 0.94 0.90 0.86 0.84 0.82 0.76 0.72 0.74 0.79 0.84 0.81 0.75 0.72 0.64 0.62 0.60 0.64 0.62 0.66 0.71 0.72 0.69 0.67 0.65 0.63 0.67 0.75 0.80 0.85 0.84 0.77 0.74 0.75 0.72 0.68
0.92 0.94 0.96 0.93 0.92 0.91 0.91 0.88 0.92 0.99 0.96 0.90 0.91 0.90 0.85 0.86 0.86 0.87 0.85 0.85 0.81 0.75 0.68 0.63 0.59 0.56 0.59 0.63 0.66 0.68 0.69 0.68 0.67 0.69 0.74 0.77 0.76 0.73 0.69 0.64 0.64 0.63 0.59 0.60